This demonstration page uses our WeatherBlox Daily Observations layout. Learn more.

Left ArrowRight Arrow

39.51506, -84.39828

Hourly Observations for April 3, 2017

Temp ( °F °C ) Dew Point ( °F °C ) Humidity (%) Winds ( mph kmh ) Pressure ( in mb ) Visibility ( mi km ) Precip ( " mm )
12:15 am 00:15 Clear 49 9.6 38 3.6 66 66 N 5 7 29.94 1014 10 16 0.00 0.00
12:35 am 00:35 Clear 49 9.6 40 4.2 69 69 N 3 6 29.94 1014 10 16 0.00 0.00
12:55 am 00:55 Clear 49 9.6 38 3.6 66 66 N 3 6 29.94 1014 10 16 0.00 0.00
1:15 am 01:15 Clear 49 9.6 40 4.6 71 71 N 3 6 29.94 1014 10 16 0.00 0.00
1:35 am 01:35 Clear 49 9.6 42 5.3 75 75 NNW 5 7 29.91 1013 10 16 0.00 0.00
1:55 am 01:55 Clear 49 9.6 41 4.9 73 73 N 3 6 29.91 1013 10 16 0.00 0.00
2:15 am 02:15 Clear 49 9.6 41 5 73 73 N 3 6 29.88 1012 10 16 0.00 0.00
2:35 am 02:35 Clear 49 9.6 41 5.2 74 74 Calm 29.88 1012 10 16 0.00 0.00
2:55 am 02:55 Clear 49 9.6 42 5.4 75 75 N 3 6 29.85 1011 10 16 0.00 0.00
3:15 am 03:15 Clear 49 9.6 41 4.8 72 72 Calm 29.85 1011 10 16 0.00 0.00
3:35 am 03:35 Clear 49 9.6 41 5.1 74 74 NNW 3 6 29.85 1011 10 16 0.00 0.00
3:55 am 03:55 Clear 49 9.6 38 3.6 66 66 N 6 9 29.83 1010 10 16 0.00 0.00
4:15 am 04:15 Clear 52 10.9 38 3.2 59 59 N 5 7 29.85 1011 10 16 0.00 0.00
4:35 am 04:35 Clear 52 11 39 3.9 62 62 Calm 29.85 1011 10 16 0.00 0.00
4:55 am 04:55 Clear 52 10.9 39 3.7 61 61 Calm 29.85 1011 10 16 0.00 0.00
5:15 am 05:15 Clear 49 9.6 41 4.8 72 72 Calm 29.83 1010 10 16 0.00 0.00
5:35 am 05:35 Partly Cloudy 49 9.7 40 4.5 70 70 Calm 29.83 1010 10 16 0.00 0.00
5:55 am 05:55 Mostly Cloudy 51 10.4 41 5.2 70 70 Calm 29.83 1010 10 16 0.00 0.00
6:15 am 06:15 Cloudy with Light Rain 51 10.8 43 6 72 72 N 3 6 29.83 1010 10 16 0.00 0.00
6:35 am 06:35 Cloudy 51 10.3 42 5.3 71 71 NNE 3 6 29.83 1010 10 16 0.00 0.00
6:55 am 06:55 Mostly Cloudy 51 10.6 42 5.7 72 72 Calm 29.83 1010 10 16 0.00 0.00
7:15 am 07:15 Cloudy 52 11 44 6.6 75 75 Calm 29.83 1010 10 16 0.00 0.00
7:35 am 07:35 Cloudy 52 11 45 7 77 77 Calm 29.83 1010 10 16 0.00 0.00
7:55 am 07:55 Cloudy 52 11 44 6.6 75 75 Calm 29.80 1009 10 16 0.00 0.00
8:15 am 08:15 Mostly Cloudy 53 11.4 45 7.2 76 76 Calm 29.80 1009 10 16 0.00 0.00
8:35 am 08:35 Mostly Cloudy 55 12.5 46 7.6 72 72 Calm 29.80 1009 10 16 0.00 0.00
8:55 am 08:55 Mostly Cloudy 57 13.8 42 5.6 58 58 Calm 29.77 1008 10 16 0.00 0.00
9:15 am 09:15 Cloudy 57 13.8 41 5 56 56 Calm 29.77 1008 10 16 0.00 0.00
9:35 am 09:35 Cloudy 60 15.3 40 4.5 49 49 S 5 7 29.74 1007 10 16 0.00 0.00
9:55 am 09:55 Cloudy 61 16 40 4.5 47 47 Calm 29.74 1007 10 16 0.00 0.00
10:15 am 10:15 Cloudy 62 16.6 41 4.9 46 46 SE 8 13 29.74 1007 10 16 0.00 0.00
10:35 am 10:35 Cloudy 63 17 41 5 45 45 SE 8 13 29.74 1007 10 16 0.00 0.00
10:55 am 10:55 Cloudy 64 17.8 42 5.5 45 45 SE 9 15 29.71 1006 10 16 0.00 0.00
11:15 am 11:15 Partly Cloudy 67 19.5 45 7.4 46 46 SE 9 15 29.71 1006 10 16 0.00 0.00
11:35 am 11:35 Partly Cloudy 69 20.8 46 8 44 44 SE 14 22 29.68 1005 10 16 0.00 0.00
11:55 am 11:55 Sunny 69 20.8 49 9.3 48 48 SSE 13 20 29.68 1005 10 16 0.00 0.00
12:15 pm 12:15 Sunny 69 20.8 50 9.9 50 50 SE 9 15 29.65 1004 10 16 0.00 0.00
12:35 pm 12:35 Partly Cloudy 69 20.8 50 10.1 51 51 SSE 21 33 29.65 1004 10 16 0.00 0.00
12:55 pm 12:55 Mostly Cloudy 69 20.8 51 10.7 53 53 SSE 20 31 29.65 1004 10 16 0.00 0.00
1:15 pm 13:15 Cloudy 69 20.8 53 11.6 56 56 SSE 14 22 29.65 1004 10 16 0.00 0.00
1:35 pm 13:35 Cloudy 69 20.8 54 12 57 57 S 15 24 29.62 1003 10 16 0.00 0.00
1:55 pm 13:55 Cloudy 69 20.8 53 11.7 56 56 SSE 20 31 29.62 1003 10 16 0.00 0.00
2:15 pm 14:15 Mostly Cloudy 69 20.8 53 11.9 57 57 SSE 15 24 29.59 1002 10 16 0.00 0.00
2:35 pm 14:35 Partly Cloudy 69 20.8 53 11.8 57 57 SSE 15 24 29.59 1002 10 16 0.00 0.00
2:55 pm 14:55 Sunny 69 20.8 54 12 57 57 SSE 16 26 29.56 1001 10 16 0.00 0.00
3:15 pm 15:15 Sunny 69 20.8 54 12 57 57 SSE 16 26 29.56 1001 10 16 0.00 0.00
3:35 pm 15:35 Partly Cloudy 69 20.8 53 11.9 57 57 SSE 14 22 29.56 1001 10 16 0.00 0.00
3:55 pm 15:55 Mostly Cloudy 69 20.8 53 11.6 56 56 S 12 19 29.56 1001 10 16 0.00 0.00
4:15 pm 16:15 Partly Cloudy 69 20.8 53 11.6 56 56 SSE 7 11 29.53 1000 10 16 0.00 0.00
4:35 pm 16:35 Sunny 69 20.8 53 11.8 57 57 SSE 9 15 29.53 1000 10 16 0.00 0.00
4:55 pm 16:55 Sunny 69 20.8 52 11 54 54 S 8 13 29.53 1000 10 16 0.00 0.00
5:15 pm 17:15 Mostly Cloudy 69 20.8 53 11.8 57 57 S 8 13 29.53 1000 10 16 0.00 0.00
5:35 pm 17:35 Cloudy with Rain 69 20.8 55 12.7 60 60 S 8 13 29.53 1000 10 16 0.00 0.00
5:55 pm 17:55 Cloudy with Rain 64 18 55 12.7 71 71 S 6 9 29.53 1000 10 16 0.00 0.00
6:15 pm 18:15 Cloudy with Rain 63 17 55 13 77 77 S 6 9 29.53 1000 5 8 0.00 0.00
6:35 pm 18:35 Cloudy with Light Rain 62 16.6 55 12.8 78 78 SSE 3 6 29.53 1000 10 16 0.00 0.00
6:55 pm 18:55 Mostly Cloudy 62 16.9 56 13.2 79 79 ESE 3 6 29.50 999 10 16 0.00 0.00
7:15 pm 19:15 Cloudy 63 17 55 13 77 77 Calm 29.50 999 10 16 0.00 0.00
7:35 pm 19:35 Cloudy 63 17 56 13.1 78 78 Calm 29.50 999 10 16 0.00 0.00
7:55 pm 19:55 Cloudy 62 16.8 55 12.9 78 78 ESE 3 6 29.50 999 10 16 0.00 0.00
8:15 pm 20:15 Cloudy 62 16.6 55 12.6 77 77 SE 5 7 29.50 999 10 16 0.00 0.00
8:35 pm 20:35 Cloudy 62 16.6 55 12.7 78 78 SE 5 7 29.50 999 10 16 0.00 0.00
8:55 pm 20:55 Cloudy 62 16.6 55 12.7 78 78 Calm 29.47 998 10 16 0.00 0.00
9:15 pm 21:15 Mostly Cloudy 62 16.6 55 12.6 77 77 SE 7 11 29.47 998 10 16 0.00 0.00
9:35 pm 21:35 Mostly Cloudy 62 16.6 55 12.5 77 77 SE 7 11 29.47 998 10 16 0.00 0.00
9:55 pm 21:55 Cloudy 62 16.6 55 12.5 77 77 SSE 6 9 29.47 998 10 16 0.00 0.00
10:15 pm 22:15 Cloudy with Light Rain 62 16.6 55 12.5 77 77 SSE 7 11 29.47 998 10 16 0.00 0.00
10:35 pm 22:35 Cloudy 62 16.6 55 12.5 77 77 S 12 19 29.47 998 10 16 0.00 0.00
10:55 pm 22:55 Mostly Cloudy 62 16.6 54 12.4 76 76 S 9 15 29.47 998 10 16 0.00 0.00
11:15 pm 23:15 Clear 61 16.3 54 12.2 77 77 S 8 13 29.44 997 10 16 0.00 0.00
11:35 pm 23:35 Partly Cloudy 61 16 53 11.9 77 77 S 8 13 29.44 997 10 16 0.00 0.00
11:55 pm 23:55 Mostly Cloudy 61 16 53 11.4 74 74 SSW 8 13 29.44 997 10 16 0.00 0.00

Powered by AerisWeather